Location: Roanoke
(37.2710°N, 79.9420°W)
Time: 14:36:43
(UTC-05:00)

S-56A Canister/Altair - Pass Details

Date: 24 November 2019
Orbit: 633 x 2499 km, 38.9° (Epoch: 10 December)

Event Time Altitude Azimuth Distance (km) Brightness Sun altitude
Rises 13:21:56 0° 212° (SSW) 6,156 13.3 29.5°
Reaches altitude 10° 13:26:31 10° 205° (SSW) 5,080 13.4 29.1°
Maximum altitude 13:39:03 38° 145° (SE) 2,921 11.2 28.2°
Drops below altitude 10° 13:48:43 10° 83° (E) 3,942 10.9 27.3°
Sets 13:51:46 0° 75° (ENE) 4,682 11.2 27.0°
